Wellington, UT

11:36 AM MDT on September 30, 2016 (GMT -0600)
Carbon County

Weather History for KPUC - January, 2013

Change the Weather History Date:

Wednesday, January 9, 2013

  Actual Average Record
Temperature  
Mean Temperature 20 °F -  
Max Temperature 30 °F 34 °F 49 °F (1981)
Min Temperature 10 °F 16 °F -5 °F (1982)
Degree Days  
Heating Degree Days 45    
Moisture  
Dew Point 14 °F    
Average Humidity 76    
Maximum Humidity 84    
Minimum Humidity 59    
Precipitation  
Precipitation 0.00 in - - ()
Sea Level Pressure  
Sea Level Pressure 30.45 in    
Wind  
Wind Speed 2 mph (NE)    
Max Wind Speed 9 mph    
Max Gust Speed -    
Visibility 10 miles    
Events      
Averages and records for this station are not official NWS values.
T = Trace of Precipitation, MM = Missing Value Source: NWS Daily Summary

Daily Weather History Graph

Daily Weather History Graph

Search for Another Location

Airport or City:

Trip Planner

Search our weather history database for the weather conditions in past years. The results will help you decide how hot, cold, wet, or windy it might be!

Date:

Astronomy

Jan. 09, 2013 Rise Set
Actual Time 7:43 AM MST 5:17 PM MST
Civil Twilight 7:13 AM MST 5:47 PM MST
Nautical Twilight 6:40 AM MST 6:20 PM MST
Astronomical Twilight 6:07 AM MST 6:53 PM MST
Moon 5:26 AM MST (1/9) 3:22 PM MST (1/9)
Length of Visible Light 10h 33m
Length of Day
9h 33m
Waning Crescent, 6% of the Moon is Illuminated
Jan 9
Waning Crescent
Jan 11
New
Jan 18
First Quarter
Jan 26
Full
Feb 3
Last Quarter

Hourly Weather History & Observations

Time (MST) Temp. Windchill Dew Point Humidity Pressure Visibility Wind Dir Wind Speed Gust Speed Precip Events Conditions
12:53 AM 18.0 °F 9.8 °F 12.9 °F 81% 30.51 in 10.0 mi NNW 5.8 mph - N/A   Clear
1:53 AM 21.0 °F - 16.0 °F 81% 30.49 in 10.0 mi Calm Calm - N/A   Clear
2:53 AM 19.0 °F - 12.9 °F 77% 30.51 in 10.0 mi Calm Calm - N/A   Clear
3:53 AM 19.0 °F 13.9 °F 12.9 °F 77% 30.50 in 10.0 mi West 3.5 mph - N/A   Clear
4:53 AM 18.0 °F 12.7 °F 12.9 °F 81% 30.50 in 10.0 mi ESE 3.5 mph - N/A   Clear
5:53 AM 15.1 °F 7.7 °F 10.9 °F 84% 30.50 in 10.0 mi NE 4.6 mph - N/A   Clear
6:53 AM 10.9 °F - 7.0 °F 84% 30.50 in 10.0 mi Calm Calm - N/A   Clear
7:53 AM 12.9 °F - 8.1 °F 81% 30.53 in 10.0 mi Calm Calm - N/A   Clear
8:53 AM 21.9 °F - 17.1 °F 82% 30.53 in 10.0 mi Calm Calm - N/A   Clear
9:53 AM 26.6 °F - 17.6 °F 69% 30.36 in 10.0 mi Calm Calm - N/A   Clear
10:53 AM 27.0 °F - 17.1 °F 66% 30.52 in 10.0 mi Calm Calm - N/A   Clear
11:53 AM 27.0 °F - 18.0 °F 69% 30.51 in 10.0 mi Calm Calm - N/A   Clear
12:53 PM 30.9 °F - 18.0 °F 59% 30.46 in 10.0 mi Calm Calm - N/A   Clear
1:53 PM 28.0 °F 19.3 °F 19.9 °F 72% 30.45 in 10.0 mi SSE 9.2 mph - N/A   Clear
2:53 PM 28.9 °F 23.9 °F 18.0 °F 64% 30.45 in 10.0 mi East 4.6 mph - N/A   Clear
3:53 PM 28.9 °F - 19.0 °F 67% 30.42 in 10.0 mi Calm Calm - N/A   Clear
4:53 PM 28.9 °F - 19.0 °F 67% 30.38 in 10.0 mi Calm Calm - N/A   Clear
5:53 PM 21.0 °F - 15.1 °F 78% 30.42 in 10.0 mi Calm Calm - N/A   Clear
6:53 PM 19.0 °F - 14.0 °F 81% 30.42 in 10.0 mi Calm Calm - N/A   Clear
7:53 PM 16.0 °F 10.4 °F 10.9 °F 81% 30.41 in 10.0 mi NE 3.5 mph - N/A   Clear
8:53 PM 15.1 °F 7.7 °F 10.0 °F 80% 30.36 in 10.0 mi NNE 4.6 mph - N/A   Clear
9:53 PM 15.1 °F 7.7 °F 10.0 °F 80% 30.33 in 10.0 mi North 4.6 mph - N/A   Clear
11:53 PM 18.0 °F - 12.0 °F 78% 30.24 in 10.0 mi Calm Calm - N/A   Clear